Location: Sternwarte-Kraichtal
(49.1689°N, 8.6996°E)
Time: 20:08:49
(UTC+02:00)

Vanguard 2 Rocket - Pass Details

Date: 30 May 2022
Orbit: 553 x 3323 km, 32.9° (Epoch: 02 July)

Event Time Altitude Azimuth Distance (km) Brightness Sun altitude
Rises 14:25:21 0° 238° (WSW) 7,233 11.9 60.0°
Reaches altitude 10° 14:30:35 10° 233° (SW) 6,275 11.8 59.5°
Maximum altitude 14:48:26 42° 172° (S) 3,799 11.2 57.8°
Drops below altitude 10° 15:01:55 10° 108° (ESE) 4,824 10.6 56.3°
Sets 15:05:18 0° 102° (ESE) 5,492 10.7 55.9°
